Time,TemperatureF,DewpointF,PressureIn,WindDirection,WindDirectionDegrees,WindSpeedMPH,WindSpeedGustMPH,Humidity,HourlyPrecipIn,Conditions,Clouds,dailyrainin,SoftwareType,DateUTC
2013-02-04 00:15:00,41.9,36.8,30.14,SW,223,0.0,0.0,82,0.00,CLR,,0.00,WeatherDisplay:10.37,2013-02-04 05:15:00,
2013-02-04 00:30:00,41.3,36.8,30.14,SW,223,0.0,0.0,84,0.00,CLR,,0.00,WeatherDisplay:10.37,2013-02-04 05:30:00,
2013-02-04 00:45:00,40.7,36.8,30.14,SW,223,0.0,0.0,86,0.00,CLR,,0.00,WeatherDisplay:10.37,2013-02-04 05:45:00,
2013-02-04 01:00:00,40.4,37.1,30.14,SW,223,0.0,0.0,88,0.00,CLR,,0.00,WeatherDisplay:10.37,2013-02-04 06:00:00,
2013-02-04 01:15:00,39.9,36.9,30.13,SW,223,0.0,0.0,89,0.00,CLR,,0.00,WeatherDisplay:10.37,2013-02-04 06:15:00,
2013-02-04 01:30:00,39.5,36.9,30.13,SW,223,0.0,0.0,90,0.00,CLR,,0.00,WeatherDisplay:10.37,2013-02-04 06:30:00,
2013-02-04 01:45:00,39.1,36.4,30.12,SW,223,0.0,0.0,90,0.00,CLR,,0.00,WeatherDisplay:10.37,2013-02-04 06:45:00,
2013-02-04 02:00:00,38.9,36.5,30.12,SW,223,0.0,0.0,91,0.00,CLR,,0.00,WeatherDisplay:10.37,2013-02-04 07:00:00,
2013-02-04 02:15:00,38.7,36.6,30.12,SW,223,0.0,0.0,92,0.00,CLR,,0.00,WeatherDisplay:10.37,2013-02-04 07:15:00,
2013-02-04 02:30:00,38.3,36.2,30.12,SW,223,0.0,0.0,92,0.00,CLR,,0.00,WeatherDisplay:10.37,2013-02-04 07:30:00,
2013-02-04 02:45:00,38.0,35.9,30.12,SW,223,0.0,0.0,92,0.00,CLR,,0.00,WeatherDisplay:10.37,2013-02-04 07:45:00,
2013-02-04 03:00:00,37.8,36.0,30.12,SW,223,0.0,0.0,93,0.00,CLR,,0.00,WeatherDisplay:10.37,2013-02-04 08:00:00,
2013-02-04 03:15:00,37.7,36.1,30.12,SW,223,0.0,0.0,94,0.00,CLR,,0.00,WeatherDisplay:10.37,2013-02-04 08:15:00,
2013-02-04 03:30:00,37.8,36.2,30.12,SW,223,0.0,0.0,94,0.00,CLR,,0.00,WeatherDisplay:10.37,2013-02-04 08:30:00,
2013-02-04 03:45:00,38.1,36.8,30.12,SW,223,0.0,0.0,95,0.00,CLR,,0.00,WeatherDisplay:10.37,2013-02-04 08:45:00,
2013-02-04 04:00:00,37.7,36.1,30.12,SW,223,0.0,0.0,94,0.00,CLR,,0.00,WeatherDisplay:10.37,2013-02-04 09:00:00,
2013-02-04 04:15:00,37.5,36.2,30.12,SW,223,0.0,0.0,95,0.00,CLR,,0.00,WeatherDisplay:10.37,2013-02-04 09:15:00,
2013-02-04 04:30:00,37.0,35.4,30.13,SW,223,0.0,0.0,94,0.00,CLR,,0.00,WeatherDisplay:10.37,2013-02-04 09:30:00,
2013-02-04 04:45:00,36.5,35.0,30.12,SW,223,0.0,0.0,94,0.00,CLR,,0.00,WeatherDisplay:10.37,2013-02-04 09:45:00,
2013-02-04 05:00:00,36.1,34.5,30.13,SW,223,0.0,0.0,94,0.00,CLR,,0.00,WeatherDisplay:10.37,2013-02-04 10:00:00,
2013-02-04 05:15:00,35.7,34.1,30.13,SW,223,0.0,0.0,94,0.00,CLR,,0.00,WeatherDisplay:10.37,2013-02-04 10:15:00,
2013-02-04 05:30:00,35.4,34.1,30.14,SW,223,0.0,0.0,95,0.00,CLR,,0.00,WeatherDisplay:10.37,2013-02-04 10:30:00,
2013-02-04 05:45:00,35.2,33.6,30.15,SW,223,0.0,0.0,94,0.00,CLR,,0.00,WeatherDisplay:10.37,2013-02-04 10:45:00,
2013-02-04 06:00:00,34.8,33.5,30.15,SW,223,0.0,0.0,95,0.00,CLR,,0.00,WeatherDisplay:10.37,2013-02-04 11:00:00,
2013-02-04 06:15:00,34.5,33.2,30.15,SW,223,0.0,0.0,95,0.00,CLR,,0.00,WeatherDisplay:10.37,2013-02-04 11:15:00,
2013-02-04 06:30:00,34.2,32.9,30.16,SW,223,0.0,0.0,95,0.00,CLR,,0.00,WeatherDisplay:10.37,2013-02-04 11:30:00,
2013-02-04 06:45:00,33.9,32.6,30.16,SW,223,0.0,0.0,95,0.00,CLR,,0.00,WeatherDisplay:10.37,2013-02-04 11:45:00,
2013-02-04 07:00:00,33.7,32.4,30.16,SW,223,0.0,0.0,95,0.00,CLR,,0.00,WeatherDisplay:10.37,2013-02-04 12:00:00,
2013-02-04 07:15:00,33.5,32.2,30.15,SW,223,0.0,0.0,95,0.00,CLR,,0.00,WeatherDisplay:10.37,2013-02-04 12:15:00,
2013-02-04 07:30:00,33.5,32.2,30.16,SW,223,0.0,0.0,95,0.00,CLR,,0.00,WeatherDisplay:10.37,2013-02-04 12:30:00,
2013-02-04 07:45:00,34.0,33.0,30.16,SW,223,0.0,0.0,96,0.00,CLR,,0.00,WeatherDisplay:10.37,2013-02-04 12:45:00,
2013-02-04 08:00:00,35.1,34.0,30.16,SW,223,0.0,0.0,96,0.00,CLR,,0.00,WeatherDisplay:10.37,2013-02-04 13:00:00,
2013-02-04 08:15:00,37.1,36.3,30.16,SW,223,0.0,0.0,97,0.00,CLR,,0.00,WeatherDisplay:10.37,2013-02-04 13:15:00,
2013-02-04 08:30:00,39.9,39.1,30.15,SW,223,0.0,0.0,97,0.00,CLR,,0.00,WeatherDisplay:10.37,2013-02-04 13:30:00,
2013-02-04 08:45:00,43.0,42.4,30.16,SW,223,0.0,0.0,98,0.00,CLR,,0.00,WeatherDisplay:10.37,2013-02-04 13:45:00,
2013-02-04 09:00:00,46.7,44.5,30.16,SW,223,0.0,1.0,92,0.00,CLR,,0.00,WeatherDisplay:10.37,2013-02-04 14:00:00,
2013-02-04 09:15:00,49.7,43.1,30.16,NNE,14,1.0,5.0,78,0.00,CLR,,0.00,WeatherDisplay:10.37,2013-02-04 14:15:00,
2013-02-04 09:30:00,50.7,42.7,30.15,North,11,1.0,5.0,74,0.00,CLR,,0.00,WeatherDisplay:10.37,2013-02-04 14:30:00,
2013-02-04 09:45:00,52.3,43.9,30.15,East,82,1.0,5.0,73,0.00,CLR,,0.00,WeatherDisplay:10.37,2013-02-04 14:45:00,
2013-02-04 10:00:00,53.7,43.0,30.15,NNE,12,0.0,4.0,67,0.00,CLR,,0.00,WeatherDisplay:10.37,2013-02-04 15:00:00,
2013-02-04 10:15:00,55.2,43.2,30.16,NNE,19,0.0,3.0,64,0.00,CLR,,0.00,WeatherDisplay:10.37,2013-02-04 15:15:00,
2013-02-04 10:30:00,57.6,41.5,30.17,NE,35,0.0,5.0,55,0.00,CLR,,0.00,WeatherDisplay:10.37,2013-02-04 15:30:00,
2013-02-04 10:45:00,58.5,41.4,30.17,South,183,0.0,3.0,53,0.00,CLR,,0.00,WeatherDisplay:10.37,2013-02-04 15:45:00,
2013-02-04 11:00:00,58.8,40.2,30.17,South,183,1.0,5.0,50,0.00,CLR,,0.00,WeatherDisplay:10.37,2013-02-04 16:00:00,
2013-02-04 11:15:00,59.6,40.4,30.15,East,96,1.0,4.0,49,0.00,CLR,,0.00,WeatherDisplay:10.37,2013-02-04 16:15:00,
2013-02-04 11:30:00,60.9,40.5,30.15,ESE,119,3.0,6.0,47,0.00,CLR,,0.00,WeatherDisplay:10.37,2013-02-04 16:30:00,
2013-02-04 11:45:00,61.5,40.0,30.15,SE,127,1.0,5.0,45,0.00,CLR,,0.00,WeatherDisplay:10.37,2013-02-04 16:45:00,
2013-02-04 12:00:00,62.7,38.0,30.15,South,188,0.0,6.0,40,0.00,CLR,,0.00,WeatherDisplay:10.37,2013-02-04 17:00:00,
2013-02-04 12:15:00,62.8,38.7,30.14,SSW,199,0.0,6.0,41,0.00,CLR,,0.00,WeatherDisplay:10.37,2013-02-04 17:15:00,
2013-02-04 12:30:00,63.2,37.8,30.14,South,169,0.0,3.0,39,0.00,CLR,,0.00,WeatherDisplay:10.37,2013-02-04 17:30:00,
2013-02-04 12:45:00,64.1,38.0,30.13,SW,225,2.0,7.0,38,0.00,CLR,,0.00,WeatherDisplay:10.37,2013-02-04 17:45:00,
2013-02-04 13:00:00,63.9,38.4,30.13,SSW,204,0.0,7.0,39,0.00,CLR,,0.00,WeatherDisplay:10.37,2013-02-04 18:00:00,
2013-02-04 13:15:00,64.6,38.4,30.12,SSW,199,0.0,5.0,38,0.00,CLR,,0.00,WeatherDisplay:10.37,2013-02-04 18:15:00,
2013-02-04 13:30:00,64.6,38.4,30.11,SSW,196,2.0,5.0,38,0.00,CLR,,0.00,WeatherDisplay:10.37,2013-02-04 18:30:00,
2013-02-04 13:45:00,64.9,37.3,30.10,SSW,193,0.0,4.0,36,0.00,CLR,,0.00,WeatherDisplay:10.37,2013-02-04 18:45:00,
2013-02-04 14:00:00,64.9,37.3,30.10,SSW,192,2.0,3.0,36,0.00,CLR,,0.00,WeatherDisplay:10.37,2013-02-04 19:00:00,
2013-02-04 14:15:00,65.8,38.1,30.10,West,278,1.0,5.0,36,0.00,CLR,,0.00,WeatherDisplay:10.37,2013-02-04 19:15:00,
2013-02-04 14:30:00,65.4,38.4,30.10,South,170,0.0,5.0,37,0.00,CLR,,0.00,WeatherDisplay:10.37,2013-02-04 19:30:00,
2013-02-04 14:45:00,65.8,37.4,30.11,WNW,297,2.0,7.0,35,0.00,CLR,,0.00,WeatherDisplay:10.37,2013-02-04 19:45:00,
2013-02-04 15:00:00,65.5,38.5,30.11,WNW,296,2.0,6.0,37,0.00,CLR,,0.00,WeatherDisplay:10.37,2013-02-04 20:00:00,
2013-02-04 15:15:00,65.1,38.8,30.11,NW,308,1.0,8.0,38,0.00,CLR,,0.00,WeatherDisplay:10.37,2013-02-04 20:15:00,
2013-02-04 15:30:00,65.2,38.9,30.10,West,276,1.0,8.0,38,0.00,CLR,,0.00,WeatherDisplay:10.37,2013-02-04 20:30:00,
2013-02-04 15:45:00,66.2,38.4,30.10,West,262,0.0,4.0,36,0.00,CLR,,0.00,WeatherDisplay:10.37,2013-02-04 20:45:00,
2013-02-04 16:00:00,65.3,37.6,30.09,WNW,300,0.0,5.0,36,0.00,CLR,,0.00,WeatherDisplay:10.37,2013-02-04 21:00:00,
2013-02-04 16:15:00,64.8,39.2,30.09,NW,313,0.0,3.0,39,0.00,CLR,,0.00,WeatherDisplay:10.37,2013-02-04 21:15:00,
2013-02-04 16:30:00,64.5,40.9,30.09,NW,313,0.0,1.0,42,0.00,CLR,,0.00,WeatherDisplay:10.37,2013-02-04 21:30:00,
2013-02-04 16:45:00,64.1,40.5,30.10,NW,313,0.0,3.0,42,0.00,CLR,,0.00,WeatherDisplay:10.37,2013-02-04 21:45:00,
2013-02-04 17:00:00,63.6,41.3,30.11,NW,313,0.0,2.0,44,0.00,CLR,,0.00,WeatherDisplay:10.37,2013-02-04 22:00:00,
2013-02-04 17:15:00,63.0,40.7,30.11,NW,312,0.0,3.0,44,0.00,CLR,,0.00,WeatherDisplay:10.37,2013-02-04 22:15:00,
2013-02-04 17:30:00,62.5,43.1,30.10,NW,312,0.0,0.0,49,0.00,CLR,,0.00,WeatherDisplay:10.37,2013-02-04 22:30:00,
2013-02-04 17:45:00,61.9,45.1,30.11,NW,312,0.0,0.0,54,0.00,CLR,,0.00,WeatherDisplay:10.37,2013-02-04 22:45:00,
2013-02-04 18:00:00,60.9,45.1,30.11,NW,312,0.0,0.0,56,0.00,CLR,,0.00,WeatherDisplay:10.37,2013-02-04 23:00:00,
2013-02-04 18:15:00,59.3,45.0,30.10,NW,312,0.0,0.0,59,0.00,CLR,,0.00,WeatherDisplay:10.37,2013-02-04 23:15:00,
2013-02-04 18:30:00,57.1,45.0,30.11,NW,312,0.0,0.0,64,0.00,CLR,,0.00,WeatherDisplay:10.37,2013-02-04 23:30:00,
2013-02-04 18:45:00,54.4,43.7,30.10,NW,312,0.0,0.0,67,0.00,CLR,,0.00,WeatherDisplay:10.37,2013-02-04 23:45:00,
2013-02-04 19:00:00,52.6,44.2,30.10,NW,312,0.0,0.0,73,0.00,CLR,,0.00,WeatherDisplay:10.37,2013-02-05 00:00:00,
2013-02-04 19:15:00,50.9,42.9,30.10,NW,312,0.0,0.0,74,0.00,CLR,,0.00,WeatherDisplay:10.37,2013-02-05 00:15:00,
2013-02-04 19:30:00,49.3,42.4,30.10,NW,312,0.0,0.0,77,0.00,CLR,,0.00,WeatherDisplay:10.37,2013-02-05 00:30:00,
2013-02-04 19:45:00,48.5,43.3,30.11,NW,312,0.0,0.0,82,0.00,CLR,,0.00,WeatherDisplay:10.37,2013-02-05 00:45:00,
2013-02-04 20:00:00,48.0,43.1,30.10,NW,312,0.0,0.0,83,0.00,CLR,,0.00,WeatherDisplay:10.37,2013-02-05 01:00:00,
2013-02-04 20:15:00,47.8,43.2,30.10,NW,312,0.0,0.0,84,0.00,CLR,,0.00,WeatherDisplay:10.37,2013-02-05 01:15:00,
2013-02-04 20:30:00,48.1,43.8,30.11,NW,312,0.0,0.0,85,0.00,CLR,,0.00,WeatherDisplay:10.37,2013-02-05 01:30:00,
2013-02-04 20:45:00,48.3,43.7,30.12,NW,312,0.0,0.0,84,0.00,CLR,,0.00,WeatherDisplay:10.37,2013-02-05 01:45:00,
2013-02-04 21:00:00,48.5,44.5,30.12,NW,312,0.0,0.0,86,0.00,CLR,,0.00,WeatherDisplay:10.37,2013-02-05 02:00:00,
2013-02-04 21:15:00,48.7,44.7,30.12,NW,312,0.0,0.0,86,0.00,CLR,,0.00,WeatherDisplay:10.37,2013-02-05 02:15:00,
2013-02-04 21:30:00,48.6,44.6,30.12,NW,312,0.0,0.0,86,0.00,CLR,,0.00,WeatherDisplay:10.37,2013-02-05 02:30:00,
2013-02-04 21:45:00,47.7,43.4,30.12,NW,312,0.0,0.0,85,0.00,CLR,,0.00,WeatherDisplay:10.37,2013-02-05 02:45:00,
2013-02-04 22:00:00,46.9,42.9,30.12,NW,312,0.0,0.0,86,0.00,CLR,,0.00,WeatherDisplay:10.37,2013-02-05 03:00:00,
2013-02-04 22:15:00,45.9,42.0,30.12,NW,312,0.0,0.0,86,0.00,CLR,,0.00,WeatherDisplay:10.37,2013-02-05 03:15:00,
2013-02-04 22:30:00,45.2,41.9,30.12,NW,312,0.0,0.0,88,0.00,CLR,,0.00,WeatherDisplay:10.37,2013-02-05 03:30:00,
2013-02-04 22:45:00,44.7,41.4,30.12,NW,312,0.0,0.0,88,0.00,CLR,,0.00,WeatherDisplay:10.37,2013-02-05 03:45:00,
2013-02-04 23:00:00,44.0,41.2,30.12,NW,312,0.0,0.0,90,0.00,CLR,,0.00,WeatherDisplay:10.37,2013-02-05 04:00:00,
2013-02-04 23:15:00,43.2,40.8,30.12,NW,312,0.0,0.0,91,0.00,CLR,,0.00,WeatherDisplay:10.37,2013-02-05 04:15:00,
2013-02-04 23:30:00,42.9,41.0,30.12,NW,312,0.0,0.0,93,0.00,CLR,,0.00,WeatherDisplay:10.37,2013-02-05 04:30:00,
2013-02-04 23:45:00,42.9,41.0,30.10,NW,312,0.0,0.0,93,0.00,CLR,,0.00,WeatherDisplay:10.37,2013-02-05 04:45:00,